Voltar ao catálogo

LEMUR 2 ZACHARY

AtivoMeteoSSO
NORAD 42845·PAYLOAD·🇺🇸 United States

Lançado Jul 14, 2017 de Baikonur Cosmodrome

Loading…

Próximas Passagens (próximas 24 horas)

TLE

AtualizadoSource: Space-Track

Época: Sep 14, 2026, 11:37 UTC

1 42845U 17042W   26257.48439975  .00049541  00000-0  64109-3 0  9994
2 42845  97.3530  91.5417 0003149  56.2145 303.9411 15.58764610503078

Acompanhe LEMUR 2 ZACHARY em tempo real com AllMySat

Download on the App Store